Alpena, MI

8:31 PM EDT on June 25, 2017 (GMT -0400)
Alpena County Regional

Weather History for KAPN - January, 2012

Change the Weather History Date:

Sunday, January 8, 2012

  Actual Average Record
Temperature  
Mean Temperature 28 °F 20 °F  
Max Temperature 35 °F 27 °F 50 °F (1965)
Min Temperature 21 °F 12 °F -21 °F (1968)
Degree Days  
Heating Degree Days 37 45  
Month to date heating degree days 302 358  
Since 1 July heating degree days 2934 3419  
Moisture  
Dew Point 20 °F    
Average Humidity 74    
Maximum Humidity 92    
Minimum Humidity 56    
Precipitation  
Precipitation T in 0.06 in 0.57 in (1937)
Month to date precipitation 0.25 0.46  
Year to date precipitation 0.25 0.46  
Snow  
Snow 0.10 in 0.70 in 3.60 in (2011)
Month to date snowfall 2.8 5.5  
Since 1 July snowfall 8.0 32.8  
Snow Depth 1.00 in    
Sea Level Pressure  
Sea Level Pressure 30.24 in    
Wind  
Wind Speed 5 mph (SW)    
Max Wind Speed 14 mph    
Max Gust Speed 18 mph    
Visibility 10 miles    
Events Snow    
T = Trace of Precipitation, MM = Missing Value Source: NWS Daily Summary

Daily Weather History Graph

Daily Weather History Graph

Search for Another Location

Airport or City:

Trip Planner

Search our weather history database for the weather conditions in past years. The results will help you decide how hot, cold, wet, or windy it might be!

Date:

Astronomy

Jan. 08, 2012 Rise Set
Actual Time 8:12 AM EST 5:09 PM EST
Civil Twilight 7:38 AM EST 5:43 PM EST
Nautical Twilight 7:01 AM EST 6:19 PM EST
Astronomical Twilight 6:26 AM EST 6:55 PM EST
Moon 4:52 PM EST (1/8) 7:29 AM EST (1/8)
Length of Visible Light 10h 04m
Length of Day
8h 57m
Full, 100% of the Moon is Illuminated
Jan 8
Full
Jan 9
Full
Jan 16
Last Quarter
Jan 23
New
Jan 30
First Quarter

Hourly Weather History & Observations

Time (EST) Temp. Windchill Dew Point Humidity Pressure Visibility Wind Dir Wind Speed Gust Speed Precip Events Conditions
12:21 AM 26.6 °F 19.1 °F 17.6 °F 69% 30.16 in 10.0 mi WNW 6.9 mph 16.1 mph N/A   Overcast
12:54 AM 26.1 °F 19.4 °F 17.1 °F 69% 30.21 in 10.0 mi WNW 5.8 mph - N/A   Overcast
1:26 AM 26.6 °F 20.0 °F 17.6 °F 69% 30.18 in 10.0 mi NW 5.8 mph - N/A   Overcast
1:54 AM 26.1 °F 17.6 °F 17.1 °F 69% 30.22 in 10.0 mi NNW 8.1 mph - N/A   Overcast
2:54 AM 25.0 °F 17.1 °F 18.0 °F 75% 30.23 in 10.0 mi NNW 6.9 mph - N/A   Overcast
3:32 AM 24.8 °F - 17.6 °F 74% 30.21 in 10.0 mi Calm Calm - N/A   Overcast
3:54 AM 25.0 °F - 17.1 °F 72% 30.25 in 10.0 mi Calm Calm - N/A   Overcast
4:23 AM 24.8 °F - 17.6 °F 74% 30.22 in 10.0 mi Calm Calm - N/A   Overcast
4:54 AM 25.0 °F - 17.1 °F 72% 30.25 in 10.0 mi Calm Calm - N/A   Mostly Cloudy
5:09 AM 24.8 °F - 17.6 °F 74% 30.22 in 10.0 mi Calm Calm - N/A   Scattered Clouds
5:40 AM 21.2 °F - 17.6 °F 86% 30.24 in 10.0 mi Calm Calm - N/A   Mostly Cloudy
5:54 AM 23.0 °F - 18.0 °F 81% 30.28 in 10.0 mi Calm Calm - N/A   Overcast
6:54 AM 24.1 °F - 18.0 °F 77% 30.30 in 10.0 mi Calm Calm - N/A   Overcast
7:18 AM 21.2 °F 16.4 °F 17.6 °F 86% 30.26 in 10.0 mi SSE 3.5 mph - N/A   Overcast
7:54 AM 21.9 °F - 19.0 °F 89% 30.30 in 10.0 mi Calm Calm - N/A   Overcast
8:54 AM 23.0 °F 18.4 °F 19.0 °F 85% 30.31 in 10.0 mi SSW 3.5 mph - N/A   Overcast
9:54 AM 25.0 °F 18.1 °F 19.0 °F 78% 30.32 in 10.0 mi South 5.8 mph - N/A   Overcast
10:54 AM 26.1 °F 19.4 °F 21.0 °F 81% 30.32 in 10.0 mi South 5.8 mph - N/A   Overcast
11:54 AM 28.0 °F 18.6 °F 19.9 °F 72% 30.29 in 10.0 mi SSW 10.4 mph - N/A   Overcast
12:02 PM 28.4 °F 20.4 °F 19.4 °F 69% 30.26 in 10.0 mi SSW 8.1 mph - N/A   Overcast
12:54 PM 30.0 °F 21.7 °F 18.0 °F 61% 30.27 in 10.0 mi SSW 9.2 mph - N/A   Mostly Cloudy
1:54 PM 34.0 °F 26.6 °F 19.0 °F 54% 30.24 in 10.0 mi SW 9.2 mph 16.1 mph N/A   Clear
2:54 PM 34.0 °F 25.5 °F 21.0 °F 59% 30.23 in 10.0 mi WSW 11.5 mph - N/A   Overcast
3:54 PM 34.0 °F 26.0 °F 21.9 °F 61% 30.22 in 10.0 mi SSW 10.4 mph - N/A   Overcast
4:54 PM 33.1 °F 26.1 °F 21.9 °F 64% 30.22 in 8.0 mi South 8.1 mph - 0.00 in Snow Light Snow
5:15 PM 46.4 °F - 33.8 °F 62% - - North - - N/A   Unknown
5:54 PM 33.1 °F 26.1 °F 24.1 °F 70% 30.22 in 10.0 mi South 8.1 mph - 0.00 in   Overcast
6:54 PM 34.0 °F 28.8 °F 23.0 °F 64% 30.23 in 10.0 mi WNW 5.8 mph - N/A   Overcast
7:54 PM 30.9 °F 23.5 °F 21.9 °F 69% 30.25 in 10.0 mi WNW 8.1 mph - N/A   Partly Cloudy
8:54 PM 30.0 °F - 21.9 °F 72% 30.24 in 10.0 mi Calm Calm - N/A   Scattered Clouds
9:54 PM 30.0 °F - 23.0 °F 75% 30.23 in 10.0 mi Calm Calm - N/A   Overcast
10:54 PM 30.0 °F - 21.9 °F 72% 30.22 in 10.0 mi Calm Calm - N/A   Scattered Clouds
11:54 PM 27.0 °F - 21.0 °F 78% 30.21 in 10.0 mi Calm Calm - N/A   Partly Cloudy